Regional Weather Roundup
Issued by NWS Nashville, TN

Home | Current Version | Previous Version | Text Only | Print | Product List | Glossary On
Versions: 1 2 3 4 5 6 7 8 9 10 11 12 13 14 15 16 17 18 19 20 21 22 23 24 25 26 27
000
ASUS44 KOHX 211410
RWROHX
MIDDLE TENNESSEE HOURLY WEATHER ROUNDUP
NATIONAL WEATHER SERVICE NASHVILLE TN
800 AM CST SAT JAN 21 2017

NOTE: "FAIR" INDICATES FEW OR NO CLOUDS BELOW 12,000 FEET WITH
NO SIGNIFICANT WEATHER AND/OR OBSTRUCTIONS TO VISIBILITY.

* THESE REPORTS ARE NOT UNDER NWS QUALITY CONTROL AND MAY NOT
  REPORT WEATHER SUCH AS PRECIPITATION AND FOG.


TNZ005>011-023>034-057-059-062>066-078-080-211500
...NORTHERN MIDDLE TENNESSEE...

CITY           SKY/WX    TMP DP  RH WIND       PRES   REMARKS
CLARKSVILLE    CLOUDY    58  51  78 S6        29.71S
CROSSVILLE     FOG       54  53  97 CALM      29.81F VSB 1/4
GALLATIN       MOSUNNY   55  54  94 N5        29.79S
DICKSON        CLOUDY    58  54  86 S8        29.72F
NASHVILLE      CLOUDY    60  56  86 S6        29.75S
PORTLAND       MOSUNNY   59  55  88 S8G14     29.75S
SMYRNA         CLOUDY    57  55  93 SE3       29.76F
SPRINGFIELD    PTSUNNY   59  54  82 SE8       29.73F
WEST NASHVILLE MOSUNNY   55  54  94 NE5       29.74F
$$
TNZ056-058-060-061-075>077-079-093>097-211500
...SOUTHERN MIDDLE TENNESSEE...

CITY           SKY/WX    TMP DP  RH WIND       PRES   REMARKS
COLUMBIA       PTSUNNY  N/A N/A N/A S13       29.75R
MCMINNVILLE    SUNNY     54  54 100 N3        29.75F
SHELBYVILLE    CLOUDY    66  46  48 SW6       29.77F
TULLAHOMA      MOSUNNY   54  54 100 NW6       29.76F
WINCHESTER     MOSUNNY   57  57 100 SE6       29.76S
$$


...KEY TO REMARKS...
VSB - VISIBILITY IN MILES
WCI - WIND CHILL INDEX
HX  - HEAT INDEX





USA.gov is the U.S. government's official web portal to all federal, state and local government web resources and services.